{"data":{"norad_id":55920,"epoch":"2026-05-25T02:50:45.184992Z","epoch_age_seconds":64261,"freshness":"FRESH","line1":"1 55920U 23037G   26145.11857853  .00000443  00000+0  44941-4 0  9998","line2":"2 55920  69.9995  91.9488 0003027 267.4438  92.6374 14.98323655175421","mean_motion":14.98323655,"eccentricity":0.0003027,"inclination_deg":69.9995,"raan_deg":91.9488,"arg_perigee_deg":267.4438,"mean_anomaly_deg":92.6374,"bstar":4.4941e-5,"rev_number":17542,"period_min":96.107406113134,"perigee_km":569.97168307525,"apogee_km":574.17934173026,"semimajor_km":6950.2125124028,"source":"CELESTRAK","updated_at":"2026-05-25T13:38:17.889862Z"}}